Location: Newark
(33.6333°S, 78.8500°W)
Time: 22:40:08
(UTC+00:00)

Envisat - Visible Passes

Search period start: 23 September 2020 00:00
Search period end: 03 October 2020 00:00
Orbit: 764 x 766 km, 98.1° (Epoch: 23 September)

Date Brightness Start Highest point End Pass type
(mag) Time Alt. Az. Time Alt. Az. Time Alt. Az.
23 Sep 6.1 00:37:37 10° SSW 00:40:30 15° WSW 00:43:22 10° W visible
23 Sep 4.2 10:07:24 10° NE 10:12:15 46° ESE 10:17:09 10° S visible
23 Sep 4.9 23:59:27 10° S 00:04:04 34° WSW 00:08:38 10° NW visible
24 Sep 5.8 09:32:04 10° ENE 09:35:45 20° ESE 09:39:27 10° SSE visible
25 Sep 3.1 10:32:30 10° NNE 10:37:36 86° ESE 10:42:45 10° S visible
26 Sep 5.9 00:25:41 10° SSW 00:29:17 20° WSW 00:32:51 10° WNW visible
26 Sep 4.8 09:56:21 10° NE 10:00:58 36° ESE 10:05:37 10° S visible
26 Sep 4.4 23:47:55 10° S 23:52:47 44° WSW 23:57:36 10° NW visible
27 Sep 6.1 09:21:30 10° ENE 09:24:31 16° ESE 09:27:32 10° SSE visible
28 Sep 6.5 00:53:21 10° SW 00:54:23 11° WSW 00:55:24 10° WSW visible
28 Sep 3.5 10:21:14 10° NNE 10:26:16 66° ESE 10:31:22 10° S visible
29 Sep 5.5 00:13:55 10° SSW 00:18:02 25° WSW 00:22:06 10° WNW visible
29 Sep 5.3 09:45:23 10° NE 09:49:41 28° ESE 09:54:01 10° SSE visible
29 Sep 3.8 23:36:26 10° S 23:41:28 58° WSW 23:46:27 10° NNW visible
30 Sep 6.3 09:11:17 10° E 09:13:18 12° ESE 09:15:19 10° SE visible
01 Oct 6.2 00:40:37 10° SW 00:43:10 14° WSW 00:45:42 10° W visible
01 Oct 4.1 10:10:02 10° NNE 10:14:57 51° ESE 10:19:55 10° S visible
02 Oct 5.1 00:02:16 10° S 00:06:45 31° WSW 00:11:13 10° NW visible
02 Oct 5.7 09:34:33 10° ENE 09:38:25 22° ESE 09:42:19 10° SSE visible
